Content
SEND FEEDBACK

Daily
Averages
Monthly
Summary
France

LE HAVRE, FRANCE


Home > Europe > France
Elevation: 338 feet     Latitude: 49 31N     Longitude: 000 04E

WEATHER
 
SELECT A DAY
Number of Records: 176,103;   Date Range: 3/4/97 - 7/28/14
 
SHARE

PRINT THIS DATA

[ ← Previous Day ]
WEATHER ALMANAC - OCTOBER 5, 2013
[ Next Day → ]
[ °C ]   °F
Weather ElementAverageHighLow
Temperature60.1 °F60.8 °F (12:30 am)59 °F (6:30 am)
Dewpoint55.1 °F57.2 °F (12:30 am)51.8 °F (4:00 pm)
Humidity83.4 %88 % (12:30 am)77 % (10:30 am)
Barometer30.14 in30.27 in (9:30 pm)30.01 in (12:30 am)
Wind Speed11.4 mph15 mph (8:00 am)
Weather ElementAverage
Visibility6.1 mi
Wind DirectionWNW (286.8 °)

Weather ElementTotal
Precipitation---
Heating Degree Days5.1 (Base 65)
Growing Degree Days9.9 (Base 50)
Averaged from 47 records on October 5, 2013
WEATHER CONDITIONS BREAKOUT
WIND DIRECTION BREAKOUT
WEATHER BY HOUR - OCTOBER 5, 2013
[ °C ]   °F
Local TimeTemperatureDewpointHumidityBarometerVisibilityWind DirectionWind SpeedGust SpeedPrecipitationEventsConditions
12:30 AM60.8 °F57.2 °F88 %30.01 in6.2 miSouth (190°)2.3 mphOvercast
1:00 AM60.8 °F57.2 °F88 %30.01 in6.2 miSSW (200°)3.5 mphMostly Cloudy
1:30 AM60.8 °F57.2 °F88 %30.01 in6.2 miWest (280°)11.5 mphOvercast
2:00 AM60.8 °F57.2 °F88 %30.01 in6.2 miWest (280°)11.5 mphOvercast
2:30 AM60.8 °F55.4 °F82 %30.01 in6.2 miWest (280°)9.2 mphScattered Clouds
3:00 AM60.8 °F55.4 °F82 %30.01 in6.2 miWest (280°)10.4 mphMostly Cloudy
3:30 AM60.8 °F55.4 °F82 %30.04 in6.2 miWest (270°)11.5 mphOvercast
4:00 AM60.8 °F55.4 °F82 %30.04 in6.2 miWest (280°)11.5 mphOvercast
4:30 AM60.8 °F55.4 °F82 %30.04 in6.2 miWest (270°)11.5 mphMostly Cloudy
5:00 AM60.8 °F55.4 °F82 %30.04 in6.2 miWest (270°)11.5 mphOvercast
5:30 AM60.8 °F55.4 °F82 %30.04 in6.2 miWest (270°)11.5 mphOvercast
6:00 AM60.8 °F55.4 °F82 %30.04 in6.2 miWest (270°)12.7 mphOvercast
6:30 AM59.0 °F55.4 °F88 %30.04 in6.2 miWest (270°)12.7 mphOvercast
7:00 AM59.0 °F55.4 °F88 %30.06 in6.2 miWest (270°)12.7 mphOvercast
7:30 AM59.0 °F55.4 °F88 %30.06 in6.2 miWest (260°)11.5 mphOvercast
8:00 AM59.0 °F55.4 °F88 %30.06 in6.2 miWest (270°)15.0 mphOvercast
8:30 AM59.0 °F55.4 °F88 %30.09 in6.2 miWest (270°)13.8 mphOvercast
9:00 AM59.0 °F55.4 °F88 %30.09 in6.2 miWest (270°)15.0 mphOvercast
9:30 AM59.0 °F55.4 °F88 %30.12 in6.2 miWest (280°)13.8 mphOvercast
10:00 AM59.0 °F55.4 °F88 %30.12 in6.2 miWNW (290°)15.0 mphMostly Cloudy
10:30 AM60.8 °F53.6 °F77 %30.12 in6.2 miWNW (290°)13.8 mphMostly Cloudy
11:00 AM60.8 °F55.4 °F82 %30.12 in6.2 miWNW (290°)15.0 mphOvercast
11:30 AM60.8 °F55.4 °F82 %30.15 in6.2 miWNW (300°)12.7 mphMostly Cloudy
12:00 PM60.8 °F55.4 °F82 %30.15 in6.2 miNW (320°)12.7 mphMostly Cloudy
12:30 PM60.8 °F55.4 °F82 %30.15 in6.2 miWNW (290°)12.7 mphOvercast
1:00 PM60.8 °F55.4 °F82 %30.15 in3.7 miWNW (300°)11.5 mphMostly Cloudy
1:30 PM60.8 °F55.4 °F82 %30.18 in6.2 miWNW (300°)11.5 mphMostly Cloudy
2:00 PM60.8 °F55.4 °F82 %30.18 in6.2 miWNW (300°)13.8 mphMostly Cloudy
2:30 PM60.8 °F55.4 °F82 %30.18 in6.2 miNW (310°)11.5 mphOvercast
3:00 PM60.8 °F55.4 °F82 %30.18 in6.2 miNW (310°)10.4 mphMostly Cloudy
3:30 PM60.8 °F55.4 °F82 %30.18 in6.2 miWNW (300°)11.5 mphOvercast
4:00 PM59.0 °F51.8 °F77 %30.21 in6.2 miWNW (290°)13.8 mphOvercast
4:30 PM59.0 °F55.4 °F88 %30.21 in3.1 miWNW (300°)10.4 mphRainLight Rain
5:00 PM60.8 °F55.4 °F82 %30.21 in6.2 miNW (310°)10.4 mphMostly Cloudy
5:30 PM60.8 °F55.4 °F82 %30.21 in6.2 miNW (310°)12.7 mphOvercast
6:00 PM60.8 °F55.4 °F82 %30.21 in6.2 miNW (310°)11.5 mphOvercast
6:30 PM60.8 °F55.4 °F82 %30.21 in6.2 miNW (310°)10.4 mphOvercast
7:00 PM60.8 °F55.4 °F82 %30.21 in6.2 miWNW (300°)11.5 mphMostly Cloudy
7:30 PM59.0 °F53.6 °F82 %30.24 in6.2 miNW (310°)10.4 mphOvercast
8:00 PM59.0 °F53.6 °F82 %30.24 in6.2 miWNW (300°)11.5 mphOvercast
8:30 PM59.0 °F53.6 °F82 %30.24 in6.2 miNW (310°)12.7 mphOvercast
9:00 PM59.0 °F53.6 °F82 %30.24 in6.2 miNW (310°)11.5 mphScattered Clouds
9:30 PM59.0 °F53.6 °F82 %30.27 in6.2 miNW (310°)9.2 mphMostly Cloudy
10:00 PM59.0 °F53.6 °F82 %30.27 in6.2 miNW (310°)8.1 mphScattered Clouds
10:30 PM59.0 °F53.6 °F82 %30.27 in6.2 miWNW (290°)9.2 mphScattered Clouds
11:00 PM59.0 °F53.6 °F82 %30.27 in6.2 miWNW (290°)9.2 mphMostly Cloudy
11:30 PM59.0 °F53.6 °F82 %30.27 in6.2 miWNW (290°)8.1 mphMostly Cloudy
Hourly data recorded from LFOH, located miles away from Le Havre, France







STORIES FROM OUR PARTNERS